User: anonymous   Login
Location: Arran
(51.9410°N, 101.7372°W)
Time: 07:02:03
(UTC+00:00)
Language:

Tiangong - Orbit

View from above orbital plane
View from above orbital plane
View from above satellite
View from above satellite

Ground track
Ground track

The orbit data is extracted from the following two-line orbital elements,

1 48274U 21035A   23147.80445357  .00022704  00000-0  26582-3 0  9990
2 48274  41.4742 279.7225 0010862 256.3777 103.5852 15.60937819118651
Epoch (UTC): 27 May 2023 19:18:24
Eccentricity: 0.0010862
inclination: 41.4742°
perigee height: 377 km
apogee height: 392 km
right ascension of ascending node: 279.7225°
argument of perigee: 256.3777°
revolutions per day: 15.60937819
mean anomaly at epoch: 103.5852°
orbit number at epoch: 11865

The dashed part of the orbit path shows where the satellite is in the earth's shadow,  

DLR